| time (UTC) | temp C | wind direction | speed KPH | gust KPH | rain 1hr cm | rain 24hr cm | rain mn cm | humidity % | barometer mb |
| 20260502130618 | 25 | 0.0 | 0.0 | 0.00 | 0.00 | 0.00 | 33 | 1019.4 | |
| 20260502123612 | 24 | 0.0 | 0.0 | 0.00 | 0.00 | 0.00 | 35 | 1019.9 | |
| 20260502120606 | 23 | 0.0 | 0.0 | 0.00 | 0.00 | 0.00 | 36 | 1020.2 | |
| 20260502113601 | 25 | 0.0 | 0.0 | 0.00 | 0.00 | 0.00 | 35 | 1020.6 | |
| 20260502110554 | 24 | 0.0 | 0.0 | 0.00 | 0.00 | 0.00 | 35 | 1021.1 | |
| 20260502103548 | 23 | 0.0 | 0.0 | 0.00 | 0.00 | 0.00 | 39 | 1021.5 | |
| 20260502100542 | 21 | 0.0 | 0.0 | 0.00 | 0.00 | 0.00 | 40 | 1022.0 | |
| 20260502090530 | 20 | 0.0 | 0.0 | 0.00 | 0.00 | 0.00 | 43 | 1022.7 | |
| 20260502070506 | 13 | 0.0 | 0.0 | 0.00 | 0.00 | 0.00 | 55 | 1023.5 | |
| 20260502063501 | 13 | 0.0 | 0.0 | 0.00 | 0.00 | 0.00 | 58 | 1023.5 | |
| 20260502060454 | 11 | 0.0 | 0.0 | 0.00 | 0.00 | 0.00 | 66 | 1023.6 | |
| 20260502053448 | 10 | 0.0 | 0.0 | 0.00 | 0.00 | 0.00 | 69 | 1023.6 | |
| 20260502050442 | 9 | 0.0 | 0.0 | 0.00 | 0.00 | 0.00 | 67 | 1023.3 | |
| 20260502043437 | 9 | 0.0 | 0.0 | 0.00 | 0.00 | 0.00 | 64 | 1023.1 | |
| 20260502040431 | 8 | 0.0 | 0.0 | 0.00 | 0.00 | 0.00 | 64 | 1023.1 | |
| 20260502033425 | 9 | 0.0 | 0.0 | 0.00 | 0.00 | 0.00 | 59 | 1023.1 | |
| 20260502030419 | 10 | 0.0 | 0.0 | 0.00 | 0.00 | 0.00 | 55 | 1022.9 | |
| 20260502023413 | 11 | 0.0 | 0.0 | 0.00 | 0.00 | 0.00 | 49 | 1022.9 | |
| 20260502020407 | 12 | 0.0 | 0.0 | 0.00 | 0.00 | 0.00 | 48 | 1023.0 | |
| 20260502013401 | 12 | 0.0 | 0.0 | 0.00 | 0.00 | 0.00 | 49 | 1023.1 | |
| 20260502010355 | 12 | 0.0 | 0.0 | 0.00 | 0.00 | 0.00 | 47 | 1023.3 | |
| 20260502003349 | 13 | 0.0 | 0.0 | 0.00 | 0.00 | 0.00 | 44 | 1023.2 | |
| 20260502000343 | 13 | 0.0 | 0.0 | 0.00 | 0.00 | 0.00 | 44 | 1023.2 | |
| 20260501233337 | 13 | 0.0 | 0.0 | 0.00 | 0.00 | 0.00 | 42 | 1023.2 | |
| 20260501230331 | 16 | 0.0 | 0.0 | 0.00 | 0.00 | 0.00 | 37 | 1023.2 | |
| 20260501223325 | 18 | 0.0 | 0.0 | 0.00 | 0.00 | 0.00 | 31 | 1023.1 | |
| 20260501220319 | 18 | 0.0 | 0.0 | 0.00 | 0.00 | 0.00 | 31 | 1023.0 | |
| 20260501213313 | 18 | 0.0 | 0.0 | 0.00 | 0.00 | 0.00 | 30 | 1023.0 | |
| 20260501210307 | 18 | 0.0 | 0.0 | 0.00 | 0.00 | 0.00 | 30 | 1023.0 | |
| 20260501203301 | 19 | 0.0 | 0.0 | 0.00 | 0.00 | 0.00 | 29 | 1023.0 | |
| 20260501200255 | 19 | 0.0 | 0.0 | 0.00 | 0.00 | 0.00 | 29 | 1022.9 | |
| 20260501193249 | 17 | 0.0 | 0.0 | 0.00 | 0.00 | 0.00 | 33 | 1022.9 | |
| 20260501190243 | 17 | 0.0 | 0.0 | 0.00 | 0.00 | 0.00 | 33 | 1022.8 | |
| 20260501183237 | 20 | 0.0 | 0.0 | 0.00 | 0.00 | 0.00 | 31 | 1022.5 | |
| 20260501180231 | 22 | 0.0 | 0.0 | 0.00 | 0.00 | 0.00 | 23 | 1022.3 | |
| 20260501173225 | 22 | 0.0 | 0.0 | 0.00 | 0.00 | 0.00 | 23 | 1022.2 | |
| 20260501170219 | 23 | 0.0 | 0.0 | 0.00 | 0.00 | 0.00 | 22 | 1022.1 | |
| 20260501163213 | 23 | 0.0 | 0.0 | 0.00 | 0.00 | 0.00 | 21 | 1022.2 | |
| 20260501160207 | 23 | 0.0 | 0.0 | 0.00 | 0.00 | 0.00 | 20 | 1022.3 | |
| 20260501153201 | 24 | 0.0 | 0.0 | 0.00 | 0.00 | 0.00 | 23 | 1022.6 |